Weather History for Moses Lake, WA

Change the Weather History Date:

Saturday, August 9, 2014

  Actual Average Record
Temperature  
Mean Temperature 73 °F 73 °F  
Max Temperature 91 °F 90 °F 99 °F (1981)
Min Temperature 54 °F 57 °F 45 °F (1985)
Degree Days  
Heating Degree Days 0 0  
Month to date heating degree days 0 0  
Since 1 June heating degree days 24 63  
Since 1 July heating degree days 0 8  
Cooling Degree Days 8 8  
Month to date cooling degree days 128 80  
Year to date cooling degree days 687 434  
Since 1 June cooling degree days 652 409  
Growing Degree Days 22 (Base 50)    
Moisture  
Dew Point 45 °F    
Average Humidity 51    
Maximum Humidity 83    
Minimum Humidity 18    
Precipitation  
Precipitation 0.00 in 0.01 in 0.05 in (1980)
Month to date precipitation 0.00 0.06  
Year to date precipitation 3.29 5.24  
Sea Level Pressure  
Sea Level Pressure 30.02 in    
Wind  
Wind Speed 4 mph (South)    
Max Wind Speed 10 mph    
Max Gust Speed 17 mph    
Visibility 10 miles    
Events      
T = Trace of Precipitation, MM = Missing Value Source: NWS Daily Summary

Daily Weather History Graph

Daily Weather History Graph

Search for Another Location

Airport:

Trip Planner

Search our weather history database for the weather conditions in past years. The results will help you decide how hot, cold, wet, or windy it might be!

Date:

Astronomy

Aug. 09, 2014 Rise Set
Actual Time 5:46 AM PDT 8:18 PM PDT
Civil Twilight 5:11 AM PDT 8:52 PM PDT
Nautical Twilight 4:28 AM PDT 9:35 PM PDT
Astronomical Twilight 3:38 AM PDT 10:25 PM PDT
Moon 7:21 PM PDT (8/9) 4:32 AM PDT (8/9)
Length of Visible Light 15h 40m
Length of Day
14h 31m
Waxing Gibbous, 99% of the Moon is Illuminated
Aug 9
Waxing Gibbous
Aug 10
Full
Aug 17
Last Quarter
Aug 25
New
Sep 2
First Quarter

Hourly Weather History & Observations

Time (PDT) Temp. Dew Point Humidity Pressure Visibility Wind Dir Wind Speed Gust Speed Precip Events Conditions
12:52 AM 64.0 °F 46.0 °F 52% 29.96 in 10.0 mi Calm Calm - N/A   Clear
1:52 AM 64.9 °F 48.9 °F 56% 29.96 in 10.0 mi SSW 4.6 mph - N/A   Clear
2:52 AM 62.1 °F 48.9 °F 62% 29.97 in 10.0 mi Calm Calm - N/A   Clear
3:52 AM 61.0 °F 43.0 °F 52% 29.98 in 10.0 mi WNW 4.6 mph - N/A   Clear
4:52 AM 57.0 °F 48.9 °F 74% 29.99 in 10.0 mi SSE 3.5 mph - N/A   Clear
5:52 AM 54.0 °F 48.0 °F 80% 30.02 in 10.0 mi SE 6.9 mph - N/A   Clear
6:52 AM 57.9 °F 48.9 °F 72% 30.04 in 10.0 mi Calm Calm - N/A   Clear
7:52 AM 63.0 °F 51.1 °F 65% 30.06 in 10.0 mi Calm Calm - N/A   Clear
8:52 AM 71.1 °F 48.0 °F 44% 30.06 in 10.0 mi ENE 3.5 mph - N/A   Clear
9:52 AM 75.9 °F 43.0 °F 31% 30.06 in 10.0 mi Calm Calm - N/A   Clear
10:52 AM 79.0 °F 43.0 °F 28% 30.06 in 10.0 mi Calm Calm - N/A   Clear
11:52 AM 82.0 °F 45.0 °F 27% 30.06 in 10.0 mi ESE 4.6 mph - N/A   Clear
12:52 PM 84.9 °F 44.1 °F 24% 30.05 in 10.0 mi Variable 5.8 mph - N/A   Clear
1:52 PM 87.1 °F 41.0 °F 20% 30.05 in 10.0 mi SSW 8.1 mph - N/A   Clear
2:52 PM 88.0 °F 43.0 °F 21% 30.03 in 10.0 mi SSW 8.1 mph - N/A   Clear
3:52 PM 89.1 °F 44.1 °F 21% 30.02 in 10.0 mi Variable 6.9 mph - N/A   Clear
4:52 PM 89.1 °F 43.0 °F 20% 30.00 in 10.0 mi Variable 5.8 mph - N/A   Clear
5:52 PM 90.0 °F 41.0 °F 18% 29.99 in 10.0 mi SW 8.1 mph - N/A   Clear
6:52 PM 88.0 °F 39.0 °F 18% 29.99 in 10.0 mi Calm Calm - N/A   Clear
7:52 PM 84.2 °F 39.2 °F 20% 30.01 in 10.0 mi ESE 3.5 mph - N/A   Clear
9:52 PM 78.1 °F 44.1 °F 30% 30.00 in 10.0 mi Calm Calm - N/A   Clear
10:52 PM 73.0 °F 45.0 °F 37% 30.01 in 10.0 mi Calm Calm - N/A   Clear
11:52 PM 66.0 °F 48.0 °F 52% 30.02 in 10.0 mi North 5.8 mph - N/A   Clear